Everett, WA

3:23 AM PST on November 20, 2019 (GMT -0800)
Snohomish County

Weather History for KPAE - August, 2019

Change the Weather History Date:

Sunday, August 25, 2019

  Actual Average Record
Temperature  
Mean Temperature 64 °F -  
Max Temperature 72 °F 72 °F 84 °F (1985)
Min Temperature 55 °F 52 °F 42 °F (1973)
Degree Days  
Heating Degree Days 1    
Growing Degree Days 14 (Base 50)    
Moisture  
Dew Point 52 °F    
Average Humidity 72    
Maximum Humidity 84    
Minimum Humidity 45    
Precipitation  
Precipitation 0.00 in - - ()
Sea Level Pressure  
Sea Level Pressure 30.15 in    
Wind  
Wind Speed 5 mph (North)    
Max Wind Speed 10 mph    
Max Gust Speed -    
Visibility 10 miles    
Events      
Averages and records for this station are not official NWS values.
T = Trace of Precipitation, MM = Missing Value Source: NWS Daily Summary

Daily Weather History Graph

Daily Weather History Graph

Search for Another Location

Airport or City:

Astronomy

Aug. 25, 2019 Rise Set
Actual Time 6:17 AM PDT 8:03 PM PDT
Civil Twilight 5:44 AM PDT 8:36 PM PDT
Nautical Twilight 5:04 AM PDT 9:16 PM PDT
Astronomical Twilight 4:19 AM PDT 10:00 PM PDT
Moon 12:42 AM PDT (8/25) 4:46 PM PDT (8/25)
Length of Visible Light 14h 51m
Length of Day
13h 46m
Waning Crescent, 28% of the Moon is Illuminated
Aug 25
Waning Crescent
Aug 30
New
Sep 5
First Quarter
Sep 13
Full
Sep 21
Last Quarter

Hourly Weather History & Observations

Time (PDT) Temp. Dew Point Humidity Pressure Visibility Wind Dir Wind Speed Gust Speed Precip Events Conditions
12:53 AM 59.0 °F 52.0 °F 78% 30.06 in 10.0 mi North 6.9 mph - N/A   Overcast
1:32 AM 59.0 °F 52.0 °F 78% 30.07 in 10.0 mi North 6.9 mph - N/A   Overcast
1:53 AM 59.0 °F 52.0 °F 78% 30.07 in 10.0 mi NNE 6.9 mph - N/A   Overcast
2:53 AM 59.0 °F 52.0 °F 78% 30.08 in 10.0 mi North 3.5 mph - N/A   Overcast
3:53 AM 57.9 °F 52.0 °F 81% 30.08 in 10.0 mi NNE 6.9 mph - N/A   Overcast
4:00 AM 57.9 °F 52.0 °F 81% 30.08 in 10.0 mi NNE 6.9 mph - N/A   Overcast
4:09 AM 57.9 °F 52.0 °F 81% 30.09 in 10.0 mi NNE 5.8 mph - N/A   Overcast
4:16 AM 57.9 °F 53.1 °F 84% 30.09 in 10.0 mi NNE 3.5 mph - N/A   Overcast
4:53 AM 57.9 °F 51.1 °F 78% 30.09 in 10.0 mi North 4.6 mph - N/A   Overcast
5:53 AM 57.0 °F 52.0 °F 83% 30.11 in 10.0 mi North 4.6 mph - N/A   Overcast
6:27 AM 57.0 °F 52.0 °F 83% 30.13 in 10.0 mi North 3.5 mph - N/A   Mostly Cloudy
6:51 AM 57.2 °F 51.8 °F 82% 30.14 in 10.0 mi Calm Calm - N/A   Scattered Clouds
6:53 AM 57.0 °F 51.1 °F 81% 30.13 in 10.0 mi Calm Calm - N/A   Partly Cloudy
7:53 AM 60.1 °F 52.0 °F 75% 30.15 in 10.0 mi Variable 3.5 mph - N/A   Scattered Clouds
8:53 AM 60.1 °F 52.0 °F 75% 30.17 in 10.0 mi North 4.6 mph - N/A   Scattered Clouds
9:53 AM 61.0 °F 54.0 °F 78% 30.19 in 10.0 mi Variable 3.5 mph - N/A   Mostly Cloudy
10:53 AM 62.1 °F 54.0 °F 75% 30.20 in 10.0 mi Calm Calm - N/A   Mostly Cloudy
11:53 AM 64.0 °F 53.1 °F 67% 30.20 in 10.0 mi NNE 6.9 mph - N/A   Mostly Cloudy
12:53 PM 69.1 °F 53.1 °F 57% 30.21 in 10.0 mi NNW 4.6 mph - N/A   Mostly Cloudy
1:53 PM 69.1 °F 53.1 °F 57% 30.21 in 10.0 mi ENE 4.6 mph - N/A   Mostly Cloudy
2:53 PM 71.1 °F 51.1 °F 49% 30.21 in 10.0 mi Variable 5.8 mph - N/A   Clear
3:53 PM 71.1 °F 50.0 °F 47% 30.21 in 10.0 mi North 5.8 mph - N/A   Clear
4:53 PM 71.1 °F 48.9 °F 45% 30.20 in 10.0 mi West 5.8 mph - N/A   Clear
5:53 PM 70.0 °F 48.0 °F 46% 30.20 in 10.0 mi WSW 5.8 mph - N/A   Clear
6:53 PM 69.1 °F 50.0 °F 51% 30.20 in 10.0 mi West 6.9 mph - N/A   Clear
7:53 PM 66.0 °F 51.1 °F 59% 30.20 in 10.0 mi NW 4.6 mph - N/A   Clear
8:53 PM 62.1 °F 53.1 °F 72% 30.21 in 10.0 mi North 5.8 mph - N/A   Clear
9:53 PM 59.0 °F 53.1 °F 81% 30.22 in 10.0 mi NNE 8.1 mph - N/A   Clear
10:53 PM 57.0 °F 51.1 °F 81% 30.22 in 10.0 mi NNE 10.4 mph - N/A   Clear
11:53 PM 55.9 °F 51.1 °F 84% 30.22 in 10.0 mi North 6.9 mph - N/A   Clear